Location: Ku?niki
(51.4449°N, 17.8974°E)
Time: 00:47:24
(UTC+00:00)

SL-14 R/B - Pass Details

Date: 18 September 2020
Orbit: 519 x 554 km, 82.4° (Epoch: 23 October)

Event Time Altitude Azimuth Distance (km) Brightness Sun altitude
Rises 19:10:21 0° 352° (N) 2,672 7.4 -20.8°
Reaches altitude 10° 19:12:32 10° 356° (N) 1,782 6.4 -21.1°
Enters shadow 19:16:02 56° 49° (NE) 640 3.4 -21.6°
